Regional Weather Roundup
Issued by NWS Boston, MA

Current Version | Previous Version | Text Only | Print | Product List | Glossary On
Versions: 1 2 3 4 5 6 7 8 9 10 11 12 13 14 15 16 17 18 19 20 21 22 23 24 25 26 27 28 29 30 31 32 33 34 35 36 37 38 39 40 41 42 43 44 45 46 47 48 49 50
000
ASUS41 KBOX 061310
RWRBOX

REGIONAL WEATHER ROUNDUP
NATIONAL WEATHER SERVICE TAUNTON MA
900 AM EDT WED MAY 06 2015

NOTE:  "FAIR" INDICATES FEW OR NO CLOUDS BELOW 12,000 FEET WITH NO
SIGNIFICANT WEATHER AND/OR OBSTRUCTIONS TO VISIBILITY.  THE FOLLOWING
OBSERVATION LOCATIONS DO NOT REPORT PRESENT WEATHER...PROVINCETOWN...
SMITHFIELD...BLOCK ISLAND...KEENE...AND OXFORD.

MAZALL-061400-
EASTERN MASSACHUSETTS

CITY           SKY/WX    TMP DP  RH WIND       PRES   REMARKS
BOSTON         PTSUNNY   65  35  33 NE8       30.30S
BEVERLY        PTSUNNY   65  38  36 NE3       30.30R
LAWRENCE       MOSUNNY   63  41  44 CALM      30.32S
BEDFORD        PTSUNNY   64  39  39 N5        30.29S
BLUE HILL        N/A     61  36  39 NE7       30.29S
NORWOOD        CLOUDY    63  41  44 CALM      30.30S
MARSHFIELD     PTSUNNY   57  46  67 E3        30.32S
PLYMOUTH       CLOUDY    58  48  69 NE9       30.30R
TAUNTON        CLOUDY    62  44  51 NE6       30.30R
NEW BEDFORD    CLOUDY    62  49  62 NE9       30.28R
$$

MAZALL-061400-
CAPE COD AND THE ISLANDS

CITY           SKY/WX    TMP DP  RH WIND       PRES   REMARKS
FALMOUTH       CLOUDY    59  50  72 NE8       30.29R
HYANNIS        CLOUDY    57  50  77 NE6       30.28R
CHATHAM        CLOUDY    58  48  69 NE8       30.30R
PROVINCETOWN   PTSUNNY   54  46  76 NE6       30.30F
NANTUCKET      CLOUDY    60  49  66 NE13      30.28R
MARTHAS VNYRD  CLOUDY   N/A N/A N/A NE15      30.28R
$$

MAZALL-061400-
CENTRAL AND WESTERN MASSACHUSETTS

CITY           SKY/WX    TMP DP  RH WIND       PRES   REMARKS
WORCESTER      CLOUDY    60  30  32 NE8       30.31R
FITCHBURG      CLOUDY    65  34  31 N7        30.32S
ORANGE         CLOUDY    58  38  47 N3        30.32S
SPRINGFIELD    CLOUDY    58  40  50 VRB1      30.31R
WESTFIELD      CLOUDY    58  43  57 N3        30.32R
NORTH ADAMS    PTSUNNY   57  43  59 CALM      30.32S
PITTSFIELD     CLOUDY    58  38  47 CALM      30.31R
$$

RIZALL-061400-
RHODE ISLAND

CITY           SKY/WX    TMP DP  RH WIND       PRES   REMARKS
PROVIDENCE     CLOUDY    63  40  42 NE8       30.30R
NEWPORT        CLOUDY    62  45  53 NE9       30.28R
BLOCK ISLAND   CLOUDY    55  45  67 NE9       30.28R
SMITHFIELD     CLOUDY    63  34  34 NE9       30.30R
WESTERLY       CLOUDY    63  38  39 N8        30.29R
$$

CTZALL-061400-
CONNECTICUT

CITY           SKY/WX    TMP DP  RH WIND       PRES   REMARKS
BRADLEY INTL   CLOUDY    62  38  40 N6        30.30R
HARTFORD       CLOUDY    61  37  41 VRB7      30.30R
BRIDGEPORT     LGT RAIN  62  41  46 N8        30.29R
DANBURY        CLOUDY    56  48  74 CALM      30.33R
GROTON         CLOUDY    64  36  35 N5        30.28R
NEW HAVEN      LGT RAIN  59  44  57 N8        30.29R
CHESTER        NOT AVBL
MERIDEN        CLOUDY    63  36  36 N7        30.30R
WILLIMANTIC    CLOUDY    64  33  31 NE7       30.29R
OXFORD         CLOUDY    59  36  41 NE5       30.33R
$$

MEZ002-015-021-024-NHZ003-005-008-011-012-014-VTZ005-008-061400-
NORTHERN NEW ENGLAND

CITY           SKY/WX    TMP DP  RH WIND       PRES   REMARKS
PORTLAND ME    SUNNY     66  37  34 N6        30.29S
BANGOR ME      SUNNY     60  33  36 VRB3      30.25F
CONCORD NH     MOSUNNY   61  37  41 CALM      30.31S
MANCHESTER NH  MOSUNNY   62  36  37 CALM      30.30S
NASHUA NH      PTSUNNY   64  38  38 CALM      30.32R
PORTSMOUTH NH  MOSUNNY   64  41  43 W2        30.29S
JAFFREY NH     PTSUNNY   62  34  35 VRB6      30.33S
KEENE NH       PTSUNNY   55  37  50 CALM      30.33S
BURLINGTON VT  SUNNY     61  38  42 S6        30.31S
MT. WASHINGTON SUNNY     34  18  51 N38         N/A  WCI  19
$$

NYZ052-076-061400-
EASTERN NEW YORK

CITY           SKY/WX    TMP DP  RH WIND       PRES   REMARKS
ALBANY         PTSUNNY   63  41  44 NE3       30.32S
NEW YORK CITY  CLOUDY    61  48  62 NE8       30.29R
$$

ANZALL-061400-
MARINE OBSERVATIONS

STATION/POSITION TIME  TEMP    WIND        PRES    VSBY  WAVE
                       AIR SEA DIR/SP/G                  HT/PER
                 (UTC) (F)     (DEG/KT/KT) (MB)    (MI)  (FT/S)
BOSTON BUOY      1250   51 47   40/  4/  6   N/A           1/10
BUZZARDS BAY     1200           20/ 18/ 19   N/A
NANTUCKET SOUND  1250   52 49   30/ 12/ 14   N/A           1
MASS BAY-STELLWA 1204   50 48  360/  4/  4   N/A    1 7/8  2/11
ISLE OF SHOALS   1200   55     320/  7/  8   N/A
S OF BLOCK IS    1208      48                N/A           4/ 7
$$

......................KEY.........................
  SKY/WX - SKY CONDITION/PRESENT WEATHER
  TMP    - TEMPERATURE IN FAHRENHEIT
  DWPT   - DEWPOINT IN FAHRENHEIT
  RH     - RELATIVE HUMIDITY IN PERCENT
  WIND   - DIRECTION AND SPEED IN MPH
  PRES   - MEAN SEA LEVEL PRESSURE IN INCHES OF HG
  WCI    - WIND CHILL INDEX
  VSB    - VISIBILITY IN MILES
  HX     - HEAT INDEX
  TC     - TEMPERATURE IN CELSIUS
  VRB    - VARIABLE WIND DIRECTION
  N/A    - NOT AVAILABLE



USA.gov is the U.S. government's official web portal to all federal, state and local government web resources and services.